Location: Brachbach
(49.1847°N, 9.7240°E)
Time: 08:52:37
(UTC+00:00)

FENGYUN 3A - Pass Details

Date: 18 August 2024
Orbit: 821 x 834 km, 98.6° (Epoch: 16 September)

Event Time Altitude Azimuth Distance (km) Brightness Sun altitude
Rises 02:20:48 0° 11° (N) 3,394 7.8 -16.8°
Reaches altitude 10° 02:23:12 10° 7° (N) 2,455 6.9 -16.5°
Maximum altitude 02:28:30 55° 291° (WNW) 1,001 3.9 -15.9°
Enters shadow 02:31:37 24° 224° (SW) 1,657 4.6 -15.5°
